EW0772 Weather Reports


time (UTC)temp
C
wind
direction
speed
KPH
gust
KPH
rain 1hr
cm
rain 24hr
cm
rain mn
cm
humidity
%
barometer
mb
20260510020042 37 76 0.0 8.0 0.00 0.00 0.00 10 1003.3
20260510014539 37 69 4.8 8.0 0.00 0.00 0.00 10 1003.2
20260510013039 37 45 8.0 14.5 0.00 0.00 0.00 10 1003.1
20260510011550 38 76 6.4 14.5 0.00 0.00 0.00 9 1002.9
20260510010047 38 86 9.7 16.1 0.00 0.00 0.00 9 1003.0
20260510004536 38 79 6.4 14.5 0.00 0.00 0.00 9 1003.0
20260510003034 38 360 4.8 12.9 0.00 0.00 0.00 9 1003.2
20260510001533 38 13 6.4 12.9 0.00 0.00 0.00 9 1003.2
20260510000032 38 36 4.8 14.5 0.00 0.00 0.00 8 1003.2
20260509234534 39 360 9.7 19.3 0.00 0.00 0.00 8 1003.4
20260509233031 38 360 12.9 19.3 0.00 0.00 0.00 9 1003.5
20260509231528 38 32 1.6 12.9 0.00 0.00 0.00 9 1003.6
20260509230026 38 24 3.2 17.7 0.00 0.00 0.00 8 1003.8
20260509224525 38 84 8.0 17.7 0.00 0.00 0.00 9 1004.0
20260509223026 38 53 8.0 17.7 0.00 0.00 0.00 9 1004.1
20260509221525 38 360 8.0 19.3 0.00 0.00 0.00 10 1004.4
20260509220020 38 38 6.4 17.7 0.00 0.00 0.00 10 1004.7
20260509214514 38 84 9.7 19.3 0.00 0.00 0.00 11 1004.8
20260509213013 38 360 3.2 12.9 0.00 0.00 0.00 12 1005.0
20260509211515 38 360 8.0 17.7 0.00 0.00 0.00 13 1005.2
20260509210007 37 145 3.2 11.3 0.00 0.00 0.00 15 1005.5
20260509204505 37 360 3.2 11.3 0.00 0.00 0.00 14 1005.8
20260509203003 37 88 4.8 14.5 0.00 0.00 0.00 13 1006.0
20260509201502 37 56 3.2 11.3 0.00 0.00 0.00 12 1006.2
20260509194600 36 24 3.2 11.3 0.00 0.00 0.00 17 1006.5
20260509193056 36 5 3.2 16.1 0.00 0.00 0.00 20 1006.7
20260509191558 36 360 4.8 16.1 0.00 0.00 0.00 18 1006.9
20260509190100 36 86 8.0 16.1 0.00 0.00 0.00 18 1007.0
20260509184553 36 294 0.0 4.8 0.00 0.00 0.00 18 1007.2
20260509183050 35 360 0.0 8.0 0.00 0.00 0.00 19 1007.3
20260509181605 35 307 0.0 3.2 0.00 0.00 0.00 19 1007.6
20260509180044 34 292 0.0 8.0 0.00 0.00 0.00 20 1007.7
20260509174544 34 360 1.6 12.9 0.00 0.00 0.00 20 1007.7
20260509173039 33 254 0.0 4.8 0.00 0.00 0.00 21 1007.8
20260509171536 33 360 1.6 8.0 0.00 0.00 0.00 22 1007.8
20260509170032 32 360 1.6 6.4 0.00 0.00 0.00 23 1007.8
20260509164529 31 360 3.2 11.3 0.00 0.00 0.00 26 1007.8
20260509163035 31 360 1.6 11.3 0.00 0.00 0.00 26 1007.8
20260509161523 30 360 4.8 14.5 0.00 0.00 0.00 29 1007.7
20260509160021 30 360 1.6 14.5 0.00 0.00 0.00 31 1007.8
20260509154517 29 360 8.0 14.5 0.00 0.00 0.00 31 1007.9
20260509153020 28 184 6.4 12.9 0.00 0.00 0.00 33 1007.8
20260509151512 28 360 1.6 8.0 0.00 0.00 0.00 34 1007.8
20260509150008 27 167 1.6 8.0 0.00 0.00 0.00 36 1007.8
20260509144506 27 360 1.6 12.9 0.00 0.00 0.00 36 1007.7
20260509143002 -17 0.0 0.0 0.00 0.00 0.00 1007.6
20260509141558 -17 0.0 0.0 0.00 0.00 0.00 1007.4
20260509140058 -17 0.0 0.0 0.00 0.00 0.00 1007.3
20260509134554 -17 0.0 0.0 0.00 0.00 0.00 1007.2
20260509133057 -17 0.0 0.0 0.00 0.00 0.00 1007.1
20260509131542 -17 0.0 0.0 0.00 0.00 0.00 1007.0
20260509130035 -17 0.0 0.0 0.00 0.00 0.00 1006.8
20260509124531 -17 0.0 0.0 0.00 0.00 0.00 1006.8
20260509123026 -17 0.0 0.0 0.00 0.00 0.00 1006.6
20260509121528 -17 0.0 0.0 0.00 0.00 0.00 1006.5
20260509120019 -17 0.0 0.0 0.00 0.00 0.00 1006.3
20260509114513 -17 0.0 0.0 0.00 0.00 0.00 1006.3
20260509113012 -17 0.0 0.0 0.00 0.00 0.00 1006.2
20260509111505 -17 0.0 0.0 0.00 0.00 0.00 1006.2
20260509104602 -17 0.0 0.0 0.00 0.00 0.00 1006.3
20260509103052 -17 0.0 0.0 0.00 0.00 0.00 1006.1
20260509101548 -17 0.0 0.0 0.00 0.00 0.00 1006.1
20260509100053 -17 0.0 0.0 0.00 0.00 0.00 1006.0
20260509094540 -17 0.0 0.0 0.00 0.00 0.00 1006.1
20260509093035 -17 0.0 0.0 0.00 0.00 0.00 1006.1
20260509091534 -17 0.0 0.0 0.00 0.00 0.00 1006.1
20260509090026 -17 0.0 0.0 0.00 0.00 0.00 1006.2
20260509084527 -17 0.0 0.0 0.00 0.00 0.00 1006.3
20260509083017 -17 0.0 0.0 0.00 0.00 0.00 1006.2
20260509081513 -17 0.0 0.0 0.00 0.00 0.00 1006.3
20260509080016 -17 0.0 0.0 0.00 0.00 0.00 1006.4
20260509074504 -17 0.0 0.0 0.00 0.00 0.00 1006.5
20260509073216 -17 0.0 0.0 0.00 0.00 0.00 1006.5
20260509071556 -17 0.0 0.0 0.00 0.00 0.00 1006.5
20260509070051 -17 0.0 0.0 0.00 0.00 0.00 1006.5
20260509064549 -17 0.0 0.0 0.00 0.00 0.00 1006.6
20260509063042 -17 0.0 0.0 0.00 0.00 0.00 1006.6
20260509061549 -17 0.0 0.0 0.00 0.00 0.00 1006.6
20260509060033 -17 0.0 0.0 0.00 0.00 0.00 1006.6
20260509054535 -17 0.0 0.0 0.00 0.00 0.00 1006.7
20260509053025 -17 0.0 0.0 0.00 0.00 0.00 1006.7
20260509051521 -17 0.0 0.0 0.00 0.00 0.00 1006.7
20260509050020 -17 0.0 0.0 0.00 0.00 0.00 1006.6
20260509044514 -17 0.0 0.0 0.00 0.00 0.00 1006.5
20260509043011 -17 0.0 0.0 0.00 0.00 0.00 1006.3
20260509041503 -17 0.0 0.0 0.00 0.00 0.00 1006.1
20260509040111 32 134 22.5 41.8 0.00 0.00 0.00 27 1005.9
20260509034600 32 144 17.7 41.8 0.00 0.00 0.00 26 1005.8
20260509033059 33 143 24.1 43.5 0.00 0.00 0.00 25 1005.6
20260509031559 33 156 25.7 43.5 0.00 0.00 0.00 24 1005.5
20260509030057 34 136 24.1 41.8 0.00 0.00 0.00 22 1005.3
20260509024557 35 144 24.1 48.3 0.00 0.00 0.00 21 1005.0
20260509023056 35 145 20.9 32.2 0.00 0.00 0.00 20 1005.0
20260509021556 35 360 20.9 32.2 0.00 0.00 0.00 19 1004.8